Flag for Russia Weather past 2 weeks in Krasnodar, Russia

Now
41 °F

Sprinkles. Partly sunny.


Feels Like: 41 °F
Forecast: 38 / 45 °F
Wind: No wind

Location: Krasnodar Airport

Current Time: Mar 1, 2015 at 10:21:45 AM

Latest Report: Mar 1, 2015 at 9:30 AM


Visibility: 5 mi

Pressure: 29.95 "Hg

Humidity: 100%

Dew point: 41 °F

Location of KrasnodarLocation

Historic Weather in Krasnodar — Graph

°F

Krasnodar temperature yesterday

Maximum temperature yesterday: 48 °F (at 2:30 PM)
Minimum temperature yesterday: 39 °F (at 12:30 AM)
Average temperature yesterday: 43 °F

Past Weeks' High & Low Weather Summary

 TemperatureHumidityPressure
High64 °F (Feb 27, 2:00 PM)100% (Feb 16, 6:30 AM)30.45 "Hg (Feb 16, 6:30 AM)
Low3 °F (Feb 19, 6:30 AM)42% (Feb 26, 5:00 PM)29.83 "Hg (Feb 28, 2:00 PM)
Average32 °F81%30.13 "Hg
* Reported Feb 14 9:00 AM — Mar 1 9:00 AM, Krasnodar, Weather by CustomWeather, © 2015

Note: Actual official high and low records may vary slightly from our data, if they occured in-between our weather recording intervals... More about our weather records

Advertising

Krasnodar weather history for previous 24 hours

 ConditionsComfort  
Time TempWeatherWind HumidityBarometerVisibility
9:00 AM
Sun, Mar 1
41 °FSprinkles. Partly sunny.No wind100%29.95 "Hg3 mi
8:30 AM41 °FSprinkles. Broken clouds.1 mph100%29.95 "Hg2 mi
8:00 AM41 °FSprinkles. Passing clouds.3 mph93%29.92 "Hg4 mi
7:30 AM41 °FSprinkles. Passing clouds.3 mph93%29.92 "Hg4 mi
7:00 AM41 °FSprinkles. Passing clouds.3 mph93%29.92 "Hg5 mi
6:30 AM41 °FPartly cloudy.6 mph93%29.89 "HgN/A
6:00 AM41 °FPartly cloudy.8 mph93%29.89 "HgN/A
5:30 AM41 °FPartly cloudy.6 mph93%29.89 "HgN/A
5:00 AM41 °FPartly cloudy.3 mph93%29.89 "HgN/A
4:30 AM41 °FPartly cloudy.3 mph93%29.89 "HgN/A
4:00 AM41 °FClear.6 mph93%29.86 "Hg10 mi
3:30 AM41 °FClear.6 mph93%29.86 "Hg10 mi
3:00 AM41 °FPassing clouds.3 mph93%29.86 "HgN/A
2:30 AM41 °FPassing clouds.3 mph93%29.86 "HgN/A
2:00 AM41 °FClear.6 mph93%29.86 "Hg10 mi
1:30 AM41 °FClear.3 mph93%29.86 "Hg10 mi
1:00 AM41 °FClear.8 mph87%29.86 "Hg10 mi
12:30 AM41 °FClear.8 mph87%29.86 "Hg10 mi
12:00 AM39 °FClear.8 mph93%29.86 "Hg10 mi
11:30 PM
Sat, Feb 28
41 °FClear.6 mph87%29.86 "Hg10 mi
11:00 PM41 °FClear.6 mph87%29.86 "Hg10 mi
10:30 PM43 °FClear.8 mph81%29.86 "Hg10 mi
10:00 PM45 °FClear.8 mph81%29.86 "Hg10 mi
9:30 PM45 °FPassing clouds.10 mph81%29.86 "HgN/A
9:00 PM45 °FPassing clouds.8 mph81%29.86 "HgN/A
8:30 PM45 °FPassing clouds.8 mph81%29.86 "HgN/A
8:00 PM45 °FPartly cloudy.6 mph81%29.86 "HgN/A
7:30 PM46 °FSprinkles. Partly cloudy.8 mph82%29.86 "HgN/A
7:00 PM46 °FBroken clouds.8 mph82%29.86 "HgN/A
6:30 PM46 °FBroken clouds.3 mph82%29.86 "HgN/A
6:00 PM46 °FBroken clouds.6 mph82%29.86 "HgN/A
5:30 PM46 °FSprinkles. Broken clouds.3 mph87%29.86 "HgN/A
5:00 PM46 °FBroken clouds.6 mph82%29.86 "HgN/A
4:30 PM48 °FBroken clouds.6 mph71%29.86 "HgN/A
4:00 PM48 °FBroken clouds.8 mph71%29.86 "HgN/A
3:30 PM48 °FBroken clouds.10 mph71%29.86 "HgN/A
3:00 PM48 °FBroken clouds.8 mph71%29.83 "HgN/A
2:30 PM48 °FSprinkles. Broken clouds.8 mph71%29.83 "HgN/A
2:00 PM46 °FBroken clouds.6 mph71%29.83 "HgN/A
1:30 PM46 °FPartly sunny.8 mph71%29.86 "HgN/A
1:00 PM45 °FSunny.8 mph76%29.86 "Hg10 mi
12:30 PM45 °FSunny.8 mph76%29.86 "Hg10 mi
12:00 PM45 °FSunny.10 mph76%29.86 "Hg10 mi
11:30 AM43 °FSunny.13 mph76%29.86 "Hg10 mi
11:00 AM43 °FPartly sunny.13 mph76%29.86 "HgN/A
10:30 AM41 °FPartly sunny.10 mph81%29.89 "HgN/A
10:00 AM41 °FPartly sunny.10 mph81%29.86 "HgN/A
Weather by CustomWeather, © 2015

See weather overviewHow to use our weather pages